TIANMU-1 08

Last updated on Wed Sep 23 2026 00:03:10 GMT+0000 (Coordinated Universal Time)

1 57400U 23101B 26265.56105221 .00003958 00000+0 13562-3 0 9990 2 57400 97.2494 313.7632 0005270 122.9630 237.2119 15.30760983176534
UTC large
Height (km)
Speed (km/s)
/
Latitude / Longitude
Inclination (degrees)
Orbital Period (minutes)
Azimuth
Elevation
Range (km)
Doppler Factor

Next 0 passes for location: London (51.5072 / 0.1276)

No passes found over London.
TIANMU-1 08